Location: Foligno
(42.9600°N, 12.7050°E)
Time: 17:02:38
(UTC+02:00)

ISS - Pass Details

Date: 26 May 2020
Orbit: 417 x 420 km, 51.6° (Epoch: 26 May)

Event Time Altitude Azimuth Distance (km) Brightness Sun altitude
Rises 23:09:14 0° 305° (NW) 2,367 1.2 -20.3°
Reaches altitude 10° 23:11:24 10° 312° (NW) 1,501 0.1 -20.5°
Maximum altitude 23:14:39 43° 26° (NNE) 599 -2.8 -20.8°
Enters shadow 23:15:06 40° 50° (NE) 629 -2.9 -20.8°
